Regional Weather Roundup
Issued by NWS

Home | Current Version | Previous Version | Graphics & Text | Print | Product List | Glossary On
Versions: 1 2 3 4 5 6 7 8 9 10 11 12 13 14 15 16 17 18 19 20 21 22 23 24 25 26 27 28 29 30 31 32 33 34 35 36 37 38 39 40 41 42 43 44 45 46 47 48 49 50
000
ASUS43 KLOT 291221
RWRIL

ILLINOIS REGIONAL WEATHER ROUNDUP
NATIONAL WEATHER SERVICE CHICAGO/ROMEOVILLE IL
700 AM CDT SAT AUG 29 2015

NOTE: "FAIR" INDICATES FEW OR NO CLOUDS BELOW 12,000 FEET WITH NO
SIGNIFICANT WEATHER AND/OR OBSTRUCTIONS TO VISIBILITY.

* THESE STATIONS ARE NOT UNDER NWS QUALITY CONTROL. THEY ALSO MAY NOT
  REPORT WEATHER SUCH AS PRECIPITATION OR FOG.

ILZ001-002-007-009-015-016-024-291300-
NORTHWEST ILLINOIS

CITY           SKY/WX    TMP DP  RH WIND       PRES   REMARKS
MOLINE         CLOUDY    69  62  78 SW5       29.96R
6HR MIN TEMP:  66; 6HR MAX TEMP:  69; 6HR PCP: TRACE;

STERLING*      CLOUDY    64  63  94 S6        29.97R
SAVANNA*       LGT RAIN  65  63  94 SE5       29.97S
$$

ILZ003-004-008-010-011-017-018-291300-
NORTH CENTRAL ILLINOIS

CITY           SKY/WX    TMP DP  RH WIND       PRES   REMARKS
ROCKFORD       LGT RAIN  64  61  90 E7        30.02R
6HR MIN TEMP:  62; 6HR MAX TEMP:  65; 6HR PCP:  0.99;

FREEPORT*      CLOUDY    62  61  97 SE6       30.01S FOG
ROCHELLE*      CLOUDY    63  61  96 SE7       30.00S
DE KALB*       CLOUDY    63  61  93 SE8       30.01S
PERU*          CLOUDY    65  62  89 SE9       30.00F
$$

ILZ005-006-012>014-019>023-291300-
NORTHEAST ILLINOIS

CITY           SKY/WX    TMP DP  RH WIND       PRES   REMARKS
CHICAGO-OHARE  LGT RAIN  63  62  97 SE6       30.04R FOG
6HR MIN TEMP:  63; 6HR MAX TEMP:  69; 6HR PCP:  0.49;

CHICAGO-MIDWAY LGT RAIN  66  61  84 SE8       30.04S
6HR MIN TEMP:  66; 6HR MAX TEMP:  72; 6HR PCP:  0.22;

AURORA         CLOUDY    64  62  93 SE8       30.02F
6HR MIN TEMP:  64; 6HR MAX TEMP:  66; 6HR PCP:  0.35;

LANSING*       LGT RAIN  64  59  83 E3        30.06R
JOLIET*        LGT RAIN  65  63  93 SE7       30.02F
WAUKEGAN       HVY RAIN  62  61  96 CALM      30.07R FOG
6HR MIN TEMP:  62; 6HR MAX TEMP:  65; 6HR PCP:  0.20;

DUPAGE AIRPORT LGT RAIN  64  61  90 SE10      30.01F FOG
6HR MIN TEMP:  63; 6HR MAX TEMP:  68; 6HR PCP:  0.59;

KANKAKEE*      CLOUDY    64  62  94 CALM      30.06R
WHEELING       LGT RAIN  64  61  90 E5        30.06R FOG
6HR MIN TEMP:  63; 6HR MAX TEMP:  68; 6HR PCP:  0.37;

MORRIS*        CLOUDY    64  62  92 SE7       30.00F
ROMEOVILLE*    RAIN      63  61  94 SE7       30.04S
NORTHERLY ISL    N/A     63  60  90 S3          N/A
$$

LMZ740>746-291300-
SOUTHERN LAKE MICHIGAN

STATION/POSITION SKY/WX   TEMP    WIND        PRES    VSBY  WAVE
                          AIR SEA DIR/SP/G                  HT/PER
                          (F)     (DEG/KT/KT) (MB)    (MI)  (FT/S)
SOUTHERN BUOY              68 68  170/ 12/ 14 1017.9R         2/ 4
WILMETTE HARBOR            60 56  290/  6/  8   N/A           1/ 3
HARRISON CRIB              65     140/ 10/ 11   N/A
BURNHAM HARBOR             63     130/  3/  6   N/A
BURNS HARBOR               68     160/ 11/ 14 1017.9S
MICHIGAN CITY              66     130/ 10/ 12   N/A
MICHIGAN CITY 6N           67 70  180/ 12/ 14   N/A           1/ 2
ST. JOSEPH                 66 70  190/  8/ 10   N/A           1/ 2
$$

ILZ025>027-034>036-040-047-049-050-058-095>099-291300-
WEST-CENTRAL ILLINOIS

CITY           SKY/WX    TMP DP  RH WIND       PRES   REMARKS
QUINCY         MOCLDY    67  63  87 CALM      29.99R
GALESBURG*     CLOUDY    66  62  88 S5        29.98R
MACOMB*        CLOUDY    67  63  86 S6        30.00S
JACKSONVILLE*  CLOUDY    71  65  81 S7        30.01R
PITTSFIELD*    CLOUDY    68  64  85 S6        30.01R
$$

ILZ028>032-037-038-041>044-048-051>054-059>061-291300-
CENTRAL ILLINOIS

CITY           SKY/WX    TMP DP  RH WIND       PRES   REMARKS
PONTIAC        CLOUDY    65  64  96 SE5       30.03S
BLOOMINGTON    LGT RAIN  67  64  90 S10       30.04R
DECATUR        CLOUDY    68  62  81 S8        30.04R
PEORIA         CLOUDY    69  63  81 S8        29.99S
6HR MIN TEMP:  68; 6HR MAX TEMP:  69; 6HR PCP:  0.01;

LACON*         CLOUDY    65  62  88 N6        29.99R
LINCOLN*       LGT RAIN  66  63  89 CALM      30.03R
SPRINGFIELD    CLOUDY    69  64  84 S8        30.01S
6HR MIN TEMP:  68; 6HR MAX TEMP:  72; 6HR PCP:  0.03;

TAYLORVILLE    CLOUDY    64  63  94 S3        30.03R
$$

ILZ033-039-045-046-055>057-062-063-291300-
EAST-CENTRAL ILLINOIS

CITY           SKY/WX    TMP DP  RH WIND       PRES   REMARKS
CHAMPAIGN      LGT RAIN  64  61  90 SE5       30.05R
RANTOUL*       CLOUDY    66  63  91 CALM      30.06R
MATTOON        HAZE      68  61  78 S7        30.05R VSB 1/4
PARIS*         CLOUDY    65  63  93 SE3       30.07R
$$

ILZ079-100>102-291300-
SOUTHWEST ILLINOIS

CITY           SKY/WX    TMP DP  RH WIND       PRES   REMARKS
ALTON          MOCLDY    66  64  94 S5        30.03R
BELLEVILLE     MOCLDY    65  65 100 CALM      30.02S
CAHOKIA*       PTCLDY    68  64  87 SE6       30.02R
SPARTA*        MOCLDY    67  65  94 SE3       30.05R
$$

ILZ064>066-069>071-074>076-080>082-084>086-088>090-092>094-291300-
SOUTH-CENTRAL ILLINOIS

CITY           SKY/WX    TMP DP  RH WIND       PRES   REMARKS
CARBONDALE     MOCLDY    66  64  93 SE5       30.05R
6HR MIN TEMP:  65; 6HR MAX TEMP:  69;

CAIRO*         CLOUDY    66  66 100 CALM      30.06R FOG
EFFINGHAM*     MOCLDY    67  62  84 SE5       30.07R
MARION         CLOUDY    70  66  88 SE6       30.07R
MT. VERNON     PTCLDY    70  63  78 CALM      30.07R
SALEM*         PTCLDY    69  64  85 SE3       30.05S
METROPOLIS*    CLOUDY    72  69  93 CALM      30.08R
$$

ILZ067-068-072-073-078-083-087-091-291300-
SOUTHEAST ILLINOIS

CITY           SKY/WX    TMP DP  RH WIND       PRES   REMARKS
LAWRENCEVILLE  MOCLDY    66  64  93 S5        30.08R
FLORA*         MOCLDY    66  63  91 CALM      30.07R
FAIRFIELD*     PTCLDY    67  64  93 CALM      30.06R
HARRISBURG*    PTCLDY    64  64  98 CALM      30.07S
ROBINSON*      MOCLDY    65  63  94 CALM      30.08R
CARMI*         PTCLDY    63  63 100 SE5       30.07R FOG
$$

ABBREVIATIONS USED IN REMARKS
   TC - TEMPERATURE IN CELSIUS
  WCI - WIND CHILL INDEX
   HX - HEAT INDEX
  VSB - VISIBILITY
$$



USA.gov is the U.S. government's official web portal to all federal, state and local government web resources and services.